Location: Sternwarte_Laufen
(47.9344°N, 12.9346°E)
Time: 21:14:09
(UTC+01:00)

ISS - Pass Details

Date: 14 January 2018
Orbit: 402 x 407 km, 51.6° (Epoch: 17 January)

Event Time Altitude Azimuth Distance (km) Brightness Sun altitude
Exits shadow 04:44:05 11° 106° (ESE) 1,418 -0.3 -31.1°
Drops below altitude 10° 04:44:11 10° 106° (ESE) 1,463 -0.2 -31.1°
Sets 04:46:16 0° 109° (ESE) 2,322 1.0 -30.7°
